User: anonymous   Login
Location: Unspecified
(0.0000°N, 0.0000°E)
Time: 02:50:20
(UTC+00:00)
Language:

UNAMSat - Orbit

View from above orbital plane
View from above orbital plane
View from above satellite
View from above satellite

Ground track
Ground track

The orbit data is extracted from the following two-line orbital elements,

1 24305U 96052B   17232.26090883 +.00000046 +00000-0 +32698-4 0  9999
2 24305 082.9378 305.1549 0029247 222.4176 137.4719 13.73786468050312
Epoch (UTC): 20 August 2017 06:15:42
Eccentricity: 0.0029247
inclination: 82.9378°
perigee height: 964 km
apogee height: 1007 km
right ascension of ascending node: 305.1549°
argument of perigee: 222.4176°
revolutions per day: 13.73786468
mean anomaly at epoch: 137.4719°
orbit number at epoch: 5031

The dashed part of the orbit path shows where the satellite is in the earth's shadow,  

DLR